Вернуться в каталог

FENGYUN 1C DEB

АктивенPO
NORAD 30133·DEBRIS·🇨🇳 China

Запущен May 10, 1999 с Taiyuan Satellite Launch Center

Loading…

Ближайшие Пролёты (ближайшие 24 часа)

TLE

СвежийSource: Space-Track

Эпоха: Sep 14, 2026, 15:41 UTC

1 30133U 99025SN  26257.65350726  .00001348  00000-0  79357-3 0  9991
2 30133  98.3499  48.1219 0083900 192.9414 180.4917 14.07770644  2595

Отслеживайте FENGYUN 1C DEB в реальном времени с AllMySat

Download on the App Store